View from above orbital plane
|
View from above satellite
|
Ground track
|
The orbit data is extracted from the following two-line orbital elements,
1 26622U 00075D 21059.43278902 -.00000736 00000-0 -64329-3 0 9997
2 26622 95.4170 206.0341 0717936 190.2321 187.1342 13.04465332964975
Epoch (UTC): | 28 February 2021 10:23:12 |
Eccentricity: | 0.0717936 |
inclination: | 95.4170° |
perigee height: | 697 km |
apogee height: | 1792 km |
right ascension of ascending node: | 206.0341° |
argument of perigee: | 190.2321° |
revolutions per day: | 13.04465332 |
mean anomaly at epoch: | 187.1342° |
orbit number at epoch: | 96497 |
The dashed part of the orbit path shows where the satellite is in the earth's shadow,
|
|